ISR171 LLBG-LEBL

Flight info

Callsign ISR171
Flight time N/A
Altitude 34000
Route SUVAS L53 ANIDE DCT TRL/N0447F360 UM601 RUTOM DCT ORVEX DCT EPIKU DCT GINOX DCT KIFMI/N0401F280 DCT ELVOP DCT MUREN DCT CHELY DCT VERSO
Aircraft A320/M-SDE2FGHIJ1LORVWY/SB1

Departure

Time 2026-05-04 09:47
Airport Ben Gurion International Airport (LLBG)

Arrival

Time N/A
Airport Josep Tarradellas Barcelona-El Prat Airport (LEBL)
Time Latitude Longitude Altitude Speed Heading
2026-05-04 09:20 32.00259 34.87420 117 ft 0 kts 275°
2026-05-04 09:26 32.00259 34.87421 120 ft 0 kts 275°
2026-05-04 09:34 32.00258 34.87421 120 ft 0 kts 275°
2026-05-04 09:34 32.00259 34.87421 120 ft 0 kts 275°
2026-05-04 09:34 32.00258 34.87421 120 ft 0 kts 275°
2026-05-04 09:37 32.00227 34.87550 116 ft 4 kts 307°
2026-05-04 09:37 32.00214 34.87577 117 ft 4 kts 291°
2026-05-04 09:38 32.00202 34.87602 117 ft 3 kts 325°
2026-05-04 09:38 32.00181 34.87615 116 ft 4 kts 356°
2026-05-04 09:38 32.00156 34.87610 117 ft 4 kts 28°
2026-05-04 09:38 32.00135 34.87595 116 ft 4 kts 32°
2026-05-04 09:39 32.00112 34.87579 116 ft 4 kts 32°
2026-05-04 09:39 32.00107 34.87575 116 ft 2 kts 31°
2026-05-04 09:40 32.00118 34.87583 116 ft 6 kts 31°
2026-05-04 09:40 32.00184 34.87631 118 ft 13 kts 31°
2026-05-04 09:41 32.00264 34.87688 117 ft 14 kts 31°
2026-05-04 09:42 32.01084 34.88277 120 ft 26 kts 31°
2026-05-04 09:43 32.01235 34.88387 121 ft 25 kts 33°
2026-05-04 09:43 32.01365 34.88525 118 ft 26 kts 50°
2026-05-04 09:43 32.01460 34.88705 119 ft 26 kts 65°
2026-05-04 09:43 32.01501 34.88871 119 ft 19 kts 77°
2026-05-04 09:44 32.01525 34.89028 119 ft 20 kts 80°
2026-05-04 09:44 32.01550 34.89190 118 ft 20 kts 79°
2026-05-04 09:44 32.01577 34.89360 115 ft 22 kts 79°
2026-05-04 09:46 32.01779 34.89325 118 ft 76 kts 259°
2026-05-04 09:46 32.01657 34.88514 120 ft 123 kts 259°
2026-05-04 09:46 32.01481 34.87366 171 ft 157 kts 258°
2026-05-04 09:47 32.01283 34.86110 749 ft 155 kts 255°
2026-05-04 09:47 32.01034 34.84862 1299 ft 156 kts 256°
2026-05-04 09:49 31.99182 34.75590 3956 ft 225 kts 265°
2026-05-04 09:49 31.99482 34.73723 4456 ft 241 kts 287°
2026-05-04 09:49 32.00069 34.71858 5238 ft 244 kts 287°
2026-05-04 09:51 32.03110 34.60074 9623 ft 259 kts 282°
2026-05-04 09:51 32.03576 34.58007 10222 ft 265 kts 282°
2026-05-04 09:51 32.04069 34.55825 10353 ft 286 kts 283°
2026-05-04 09:51 32.04601 34.53483 10493 ft 305 kts 283°
2026-05-04 09:52 32.05161 34.51028 10933 ft 312 kts 283°
2026-05-04 09:52 32.05731 34.48551 11559 ft 314 kts 283°
2026-05-04 09:52 32.06307 34.46064 12214 ft 315 kts 283°
2026-05-04 09:52 32.06883 34.43568 12821 ft 316 kts 283°
2026-05-04 09:53 32.07457 34.41059 13439 ft 318 kts 283°
2026-05-04 09:53 32.08033 34.38538 14027 ft 319 kts 283°
2026-05-04 09:53 32.08617 34.35977 14593 ft 319 kts 282°
2026-05-04 09:53 32.09197 34.33444 15160 ft 319 kts 282°
2026-05-04 09:54 32.09775 34.30920 15711 ft 319 kts 282°
2026-05-04 09:54 32.10354 34.28391 16265 ft 319 kts 281°
2026-05-04 09:54 32.10929 34.25864 16813 ft 319 kts 281°
2026-05-04 09:54 32.11502 34.23332 17375 ft 319 kts 280°
2026-05-04 09:55 32.12074 34.20799 17961 ft 320 kts 280°
2026-05-04 09:55 32.12647 34.18273 18510 ft 319 kts 280°
2026-05-04 09:55 32.13221 34.15739 18992 ft 320 kts 280°
2026-05-04 09:55 32.13798 34.13193 19439 ft 322 kts 280°
2026-05-04 09:56 32.14375 34.10639 19888 ft 323 kts 280°
2026-05-04 09:56 32.14953 34.08072 20333 ft 325 kts 280°
2026-05-04 09:56 32.15537 34.05485 20756 ft 327 kts 280°
2026-05-04 09:56 32.16125 34.02885 21173 ft 329 kts 279°
2026-05-04 09:57 32.16717 34.00275 21577 ft 331 kts 281°
2026-05-04 09:57 32.17568 33.97718 21954 ft 339 kts 289°
2026-05-04 09:57 32.18609 33.95213 22361 ft 341 kts 289°
2026-05-04 09:57 32.19658 33.92695 22774 ft 342 kts 289°
2026-05-04 09:58 32.20709 33.90166 23163 ft 344 kts 289°
2026-05-04 09:58 32.21763 33.87618 23556 ft 346 kts 289°
2026-05-04 09:58 32.22820 33.85059 23879 ft 348 kts 289°
2026-05-04 10:00 32.30303 33.66903 26206 ft 354 kts 289°
2026-05-04 10:00 32.31380 33.64279 26523 ft 355 kts 289°
2026-05-04 10:02 32.38996 33.45686 28955 ft 357 kts 289°
2026-05-04 10:04 32.46435 33.27446 31620 ft 348 kts 288°
2026-05-04 10:04 32.47479 33.24865 31949 ft 347 kts 288°
2026-05-04 10:04 32.48523 33.22285 32281 ft 347 kts 288°
2026-05-04 10:04 32.49564 33.19714 32605 ft 346 kts 289°
2026-05-04 10:05 32.50606 33.17145 32946 ft 345 kts 289°
2026-05-04 10:05 32.51645 33.14584 33304 ft 345 kts 289°
2026-05-04 10:05 32.52684 33.12026 33642 ft 344 kts 289°
2026-05-04 10:05 32.53718 33.09474 33948 ft 344 kts 289°
2026-05-04 10:06 32.54753 33.06914 34034 ft 346 kts 289°
2026-05-04 10:06 32.56857 33.01666 34048 ft 359 kts 289°
2026-05-04 10:08 32.63557 32.85045 34045 ft 377 kts 290°
2026-05-04 10:08 32.64687 32.82239 34042 ft 378 kts 290°
2026-05-04 10:08 32.66940 32.76609 34042 ft 377 kts 289°
2026-05-04 10:09 32.69204 32.70943 34039 ft 378 kts 289°
2026-05-04 10:09 32.71461 32.65311 34039 ft 378 kts 290°
2026-05-04 10:10 32.73712 32.59678 34058 ft 377 kts 290°
2026-05-04 10:10 32.75952 32.54047 34053 ft 377 kts 290°
2026-05-04 10:11 32.78191 32.48409 34047 ft 377 kts 290°
2026-05-04 10:11 32.80429 32.42766 34042 ft 377 kts 290°
2026-05-04 10:12 32.83017 32.37312 34039 ft 383 kts 297°
2026-05-04 10:12 32.86052 32.32090 34051 ft 384 kts 298°
2026-05-04 10:13 32.89084 32.26870 34042 ft 383 kts 298°
2026-05-04 10:13 32.92097 32.21651 34042 ft 383 kts 298°
2026-05-04 10:14 32.95109 32.16428 34032 ft 383 kts 298°
2026-05-04 10:16 33.07173 31.95458 34012 ft 385 kts 298°
2026-05-04 10:16 33.10218 31.90152 34011 ft 385 kts 298°
2026-05-04 10:17 33.13244 31.84872 34009 ft 386 kts 298°
2026-05-04 10:19 33.24837 31.64550 34037 ft 387 kts 298°
2026-05-04 10:19 33.27861 31.59237 34023 ft 387 kts 298°
2026-05-04 10:20 33.30879 31.53914 34017 ft 387 kts 298°
2026-05-04 10:20 33.33888 31.48588 34030 ft 386 kts 298°
2026-05-04 10:21 33.36899 31.43264 34024 ft 386 kts 298°
2026-05-04 10:21 33.39936 31.37900 34021 ft 387 kts 298°
2026-05-04 10:22 33.44454 31.29896 34020 ft 387 kts 298°
2026-05-04 10:23 33.47467 31.24552 34047 ft 388 kts 299°
2026-05-04 10:25 33.59553 31.02987 34012 ft 390 kts 299°
2026-05-04 10:25 33.62581 30.97576 34011 ft 391 kts 299°
2026-05-04 10:26 33.65612 30.92158 34019 ft 391 kts 299°
2026-05-04 10:26 33.68641 30.86726 33997 ft 392 kts 299°
2026-05-04 10:27 33.71667 30.81275 33988 ft 392 kts 299°
2026-05-04 10:27 33.74698 30.75820 33988 ft 393 kts 299°
2026-05-04 10:28 33.77730 30.70367 33997 ft 393 kts 299°
2026-05-04 10:28 33.80754 30.64903 33996 ft 393 kts 299°
2026-05-04 10:29 33.83781 30.59433 33987 ft 393 kts 299°
2026-05-04 10:29 33.86823 30.53924 33990 ft 393 kts 299°
2026-05-04 10:30 33.89850 30.48453 33996 ft 393 kts 299°
2026-05-04 10:30 33.92873 30.42969 34024 ft 393 kts 299°
2026-05-04 10:31 33.95892 30.37459 34004 ft 395 kts 300°
2026-05-04 10:32 34.06537 30.18047 33991 ft 398 kts 300°
2026-05-04 10:33 34.09581 30.12477 33996 ft 398 kts 300°
2026-05-04 10:33 34.12623 30.06895 34002 ft 398 kts 300°
2026-05-04 10:34 34.15664 30.01303 33999 ft 398 kts 300°
2026-05-04 10:34 34.18553 29.95604 33999 ft 397 kts 297°
2026-05-04 10:35 34.21255 29.89786 33998 ft 397 kts 296°
2026-05-04 10:35 34.23943 29.83953 34003 ft 398 kts 296°
2026-05-04 10:36 34.26666 29.78136 34007 ft 397 kts 297°
2026-05-04 10:36 34.29400 29.72334 34010 ft 396 kts 297°
2026-05-04 10:37 34.32137 29.66499 34012 ft 396 kts 297°
2026-05-04 10:37 34.34849 29.60705 34010 ft 396 kts 297°
2026-05-04 10:39 34.44325 29.40349 33998 ft 399 kts 297°
2026-05-04 10:40 34.47045 29.34490 33997 ft 400 kts 297°
2026-05-04 10:40 34.49777 29.28609 33999 ft 400 kts 297°
2026-05-04 10:41 34.52502 29.22715 34013 ft 401 kts 297°
2026-05-04 10:41 34.55230 29.16820 34012 ft 401 kts 298°
2026-05-04 10:42 34.57960 29.10910 34013 ft 402 kts 297°
2026-05-04 10:42 34.60683 29.04987 34017 ft 402 kts 297°
2026-05-04 10:43 34.63410 28.99065 34019 ft 402 kts 297°
2026-05-04 10:45 34.74312 28.75259 34028 ft 402 kts 298°
2026-05-04 10:45 34.77024 28.69303 34029 ft 402 kts 297°
2026-05-04 10:46 34.79730 28.63348 34022 ft 402 kts 298°
2026-05-04 10:46 34.82443 28.57392 34019 ft 403 kts 298°
2026-05-04 10:47 34.85149 28.51423 34032 ft 403 kts 298°
2026-05-04 10:47 34.87848 28.45446 34036 ft 403 kts 298°
2026-05-04 10:49 34.98634 28.21522 34051 ft 403 kts 298°
2026-05-04 10:50 35.01321 28.15530 34057 ft 403 kts 298°
2026-05-04 10:52 35.11609 27.92504 34055 ft 402 kts 298°
2026-05-04 10:52 35.14277 27.86494 34054 ft 402 kts 298°
2026-05-04 10:54 35.24945 27.62431 34073 ft 402 kts 298°
2026-05-04 10:56 35.35547 27.38303 34088 ft 401 kts 298°
2026-05-04 10:57 35.38190 27.32280 34089 ft 401 kts 298°
2026-05-04 10:57 35.40822 27.26258 34099 ft 401 kts 298°
2026-05-04 10:58 35.43473 27.20189 34125 ft 402 kts 298°
2026-05-04 10:58 35.46106 27.14138 34072 ft 403 kts 298°
2026-05-04 10:59 35.48734 27.08073 34069 ft 402 kts 298°
2026-05-04 10:59 35.51338 27.01994 34077 ft 402 kts 298°
2026-05-04 11:00 35.53920 26.95898 34085 ft 402 kts 298°
2026-05-04 11:02 35.64206 26.71505 34122 ft 402 kts 298°
2026-05-04 11:05 35.83325 26.25674 34125 ft 401 kts 298°
2026-05-04 11:06 35.85856 26.19559 34141 ft 400 kts 298°
2026-05-04 11:06 35.88382 26.13449 34154 ft 400 kts 298°
2026-05-04 11:10 36.05997 25.70502 34160 ft 401 kts 298°
2026-05-04 11:12 36.15999 25.45856 34174 ft 400 kts 298°
2026-05-04 11:12 36.18489 25.39691 34175 ft 400 kts 298°
2026-05-04 11:13 36.20976 25.33535 34177 ft 400 kts 298°
2026-05-04 11:13 36.23459 25.27368 34169 ft 400 kts 299°
2026-05-04 11:14 36.25929 25.21202 34180 ft 399 kts 298°
2026-05-04 11:16 36.35794 24.96538 34175 ft 398 kts 299°
2026-05-04 11:16 36.38255 24.90345 34188 ft 397 kts 299°
2026-05-04 11:17 36.40695 24.84213 34192 ft 396 kts 299°
2026-05-04 11:19 36.50406 24.59628 34170 ft 399 kts 299°
2026-05-04 11:19 36.52845 24.53412 34167 ft 400 kts 299°
2026-05-04 11:20 36.55286 24.47187 34169 ft 401 kts 299°
2026-05-04 11:20 36.57740 24.40954 34174 ft 401 kts 299°
2026-05-04 11:22 36.67463 24.16015 34199 ft 398 kts 299°
2026-05-04 11:23 36.69870 24.09811 34198 ft 398 kts 299°
2026-05-04 11:25 36.77841 23.89173 34197 ft 396 kts 299°
2026-05-04 11:25 36.80225 23.82984 34197 ft 395 kts 299°
2026-05-04 11:27 36.90890 23.55082 34183 ft 395 kts 299°
2026-05-04 11:28 36.93242 23.48891 34186 ft 394 kts 299°
2026-05-04 11:28 36.95595 23.42693 34154 ft 394 kts 299°
2026-05-04 11:29 36.97952 23.36500 34186 ft 395 kts 300°
2026-05-04 11:29 37.00308 23.30285 34180 ft 396 kts 299°
2026-05-04 11:33 37.16722 22.86506 34168 ft 397 kts 299°
2026-05-04 11:33 37.19063 22.80213 34160 ft 397 kts 299°
2026-05-04 11:34 37.21408 22.73902 34134 ft 397 kts 299°
2026-05-04 11:34 37.23736 22.67628 34146 ft 397 kts 298°
2026-05-04 11:35 37.26059 22.61344 34143 ft 397 kts 298°
2026-05-04 11:35 37.28382 22.55047 34147 ft 397 kts 298°
2026-05-04 11:36 37.30698 22.48767 34153 ft 397 kts 298°
2026-05-04 11:36 37.33018 22.42456 34147 ft 397 kts 298°
2026-05-04 11:37 37.35320 22.36176 34156 ft 396 kts 298°
2026-05-04 11:37 37.37619 22.29885 34169 ft 395 kts 298°
2026-05-04 11:38 37.39910 22.23607 34164 ft 395 kts 298°
2026-05-04 11:38 37.42202 22.17322 34178 ft 395 kts 298°
2026-05-04 11:39 37.44507 22.10997 34156 ft 395 kts 298°
2026-05-04 11:41 37.52482 21.88975 34189 ft 395 kts 298°
2026-05-04 11:41 37.54755 21.82677 34182 ft 395 kts 298°
2026-05-04 11:42 37.57021 21.76373 34163 ft 395 kts 298°
2026-05-04 11:42 37.59283 21.70073 34171 ft 395 kts 298°
2026-05-04 11:43 37.61544 21.63763 34178 ft 395 kts 298°
2026-05-04 11:43 37.63800 21.57444 34185 ft 395 kts 298°
2026-05-04 11:44 37.66050 21.51127 34192 ft 395 kts 298°
2026-05-04 11:44 37.68302 21.44799 34195 ft 395 kts 298°
2026-05-04 11:45 37.70548 21.38474 34198 ft 395 kts 298°
2026-05-04 11:45 37.72806 21.32102 34202 ft 395 kts 298°
2026-05-04 11:46 37.75047 21.25777 34204 ft 395 kts 298°
2026-05-04 11:46 37.77290 21.19438 34204 ft 395 kts 298°
2026-05-04 11:47 37.79522 21.13093 34182 ft 395 kts 298°
2026-05-04 11:47 37.81757 21.06739 34172 ft 395 kts 298°
2026-05-04 11:48 37.83984 21.00397 34174 ft 395 kts 298°
2026-05-04 11:48 37.86204 20.94038 34173 ft 395 kts 298°
2026-05-04 11:49 37.88424 20.87671 34176 ft 395 kts 298°
2026-05-04 11:49 37.90637 20.81308 34180 ft 395 kts 298°
2026-05-04 11:50 37.92855 20.74930 34154 ft 396 kts 297°
2026-05-04 11:50 37.95075 20.68544 34167 ft 396 kts 298°
2026-05-04 11:51 37.97294 20.62149 34189 ft 397 kts 297°
2026-05-04 11:51 37.99510 20.55737 34200 ft 397 kts 297°
2026-05-04 11:52 38.01730 20.49278 34209 ft 397 kts 297°
2026-05-04 11:52 38.03936 20.42845 34179 ft 398 kts 297°
2026-05-04 11:53 38.06147 20.36407 34191 ft 399 kts 297°
2026-05-04 11:53 38.08363 20.29956 34191 ft 399 kts 297°
2026-05-04 11:55 38.17198 20.04025 34156 ft 401 kts 297°
2026-05-04 11:56 38.19044 19.98573 34161 ft 402 kts 296°
2026-05-04 11:56 38.21253 19.92034 34165 ft 402 kts 296°
2026-05-04 11:57 38.23454 19.85502 34171 ft 402 kts 296°
2026-05-04 11:57 38.25656 19.78952 34152 ft 403 kts 296°
2026-05-04 11:58 38.27855 19.72400 34159 ft 403 kts 296°
2026-05-04 11:58 38.30061 19.65832 34165 ft 404 kts 296°
2026-05-04 11:59 38.32259 19.59246 34174 ft 404 kts 296°
2026-05-04 11:59 38.34447 19.52667 34173 ft 404 kts 296°
2026-05-04 12:00 38.36649 19.46067 34172 ft 404 kts 296°
2026-05-04 12:00 38.38857 19.39433 34145 ft 405 kts 296°
2026-05-04 12:01 38.41048 19.32810 34164 ft 406 kts 296°
2026-05-04 12:02 38.48712 19.09540 34150 ft 407 kts 295°
2026-05-04 12:03 38.50899 19.02864 34149 ft 408 kts 295°
2026-05-04 12:03 38.52950 18.96088 34152 ft 410 kts 292°
2026-05-04 12:04 38.54764 18.89180 34154 ft 411 kts 291°
2026-05-04 12:04 38.56525 18.82219 34159 ft 411 kts 291°
2026-05-04 12:05 38.58316 18.75270 34134 ft 412 kts 291°
2026-05-04 12:05 38.60142 18.68326 34136 ft 413 kts 291°
2026-05-04 12:06 38.61969 18.61344 34144 ft 414 kts 291°
2026-05-04 12:06 38.63788 18.54350 34151 ft 415 kts 291°
2026-05-04 12:07 38.65604 18.47333 34161 ft 415 kts 291°
2026-05-04 12:07 38.67426 18.40262 34146 ft 416 kts 290°
2026-05-04 12:08 38.69222 18.33268 34145 ft 417 kts 290°
2026-05-04 12:08 38.71048 18.26172 34148 ft 417 kts 290°
2026-05-04 12:09 38.72859 18.19114 34149 ft 416 kts 290°
2026-05-04 12:09 38.73747 18.15641 34148 ft 402 kts 290°
2026-05-04 12:09 38.74601 18.12283 34155 ft 393 kts 290°
2026-05-04 12:10 38.76283 18.05670 34153 ft 389 kts 290°
2026-05-04 12:10 38.77954 17.99078 34153 ft 389 kts 290°